Wetbulb
48.35 48.44 47.89 48.01 47.83 47.67 47.94 48.19 48.36 48.15 47.87 47.64 47.78 47.56 47.16 46.73 46.18 44.89 44.24 44.26 43.78 43.48 43.22 42.88 43.01 42.92 42.79 42.00 41.76 42.19 41.95 41.12 39.88 42.81 43.33 43.06 41.24 40.85 42.48 42.72 43.49 42.61 43.43
49.27 48.44 48.59 48.08 47.65 47.53 48.16 48.32 48.29 47.81 47.70 47.72 47.48 47.22 47.09 46.88 46.31 45.41 44.94 45.11 43.97 43.41 43.49 42.76 42.90 44.87 42.04 41.91 41.50 41.22 41.58 42.24 40.94 40.58 42.96 42.97 41.07 41.79 41.15 40.84 43.77 45.16 42.83
48.31 48.40 47.75 47.41 47.14 47.74 47.94 47.74 47.66 47.36 47.36 47.36 47.34 46.86 46.77 46.47 45.73 45.05 44.64 44.27 43.72 43.47 43.13 42.49 42.70 42.18 41.39 41.33 41.04 40.97 41.23 42.89 41.27 40.62 41.07 42.39 40.74 40.16 40.15 40.55 40.77 41.28 43.37
48.33 48.00 48.08 48.16 48.28 48.41 48.24 47.33 47.61 47.88 47.74 46.61 46.11 46.09 46.01 45.76 45.49 45.22 44.66 43.66 43.12 43.23 43.38 43.14 42.81 42.46 41.82 41.54 41.60 40.85 41.45 40.37 40.30 39.99 40.80 41.11 40.14 39.99 38.72 38.25 39.24 39.05 40.76
48.56 48.10 48.76 49.19 48.63 48.00 47.32 47.59 48.12 47.99 47.22 47.07 46.49 45.64 45.21 44.69 45.00 44.02 43.81 43.16 42.68 42.56 42.87 43.03 43.23 44.74 49.25 49.33 46.96 44.45 41.77 40.11 39.44 39.25 39.66 38.29 38.87 37.23 37.19 37.70 36.67 40.09 42.29
48.84 49.01 49.72 48.24 48.37 48.20 48.09 48.03 47.78 47.19 47.10 46.79 45.90 45.68 45.13 45.53 49.46 51.22 48.01 43.79 43.38 42.72 42.40 42.65 42.82 46.37 46.27 50.17 51.35 51.92 51.16 43.53 40.95 38.57 40.90 38.10 39.17 37.48 37.15 37.42 37.01 37.17 39.17
49.27 49.59 49.18 48.88 48.65 48.65 49.08 48.07 47.26 46.47 46.39 45.86 45.46 45.40 45.10 45.37 51.03 53.23 52.94 46.42 44.37 42.90 42.18 42.03 42.95 45.22 46.40 44.24 47.20 49.76 48.39 49.56 48.92 43.56 40.98 40.37 39.36 39.63 38.11 34.67 37.95 39.23 41.78
49.06 49.45 49.37 48.79 49.05 48.99 48.55 48.60 46.25 46.02 45.70 45.22 45.72 46.13 45.78 46.39 51.51 53.12 52.24 44.79 43.29 42.67 42.22 42.44 42.22 42.75 43.73 46.06 44.59 43.42 42.28 42.12 42.94 44.11 41.62 41.23 41.32 42.02 43.55 44.57 44.51 43.74 43.14
49.24 49.58 49.54 49.32 49.04 48.72 48.56 48.30 45.95 45.46 45.19 45.78 46.53 45.94 45.24 45.15 50.10 51.75 48.31 43.42 42.76 41.74 42.56 43.00 43.15 43.43 49.18 49.96 43.16 41.34 41.14 41.49 45.50 48.00 48.69 48.81 47.89 47.39 46.84 43.52 38.92 38.82 37.55
49.81 50.40 50.18 49.33 49.49 48.66 49.40 46.99 45.71 45.57 46.10 46.71 46.15 45.53 47.09 44.55 49.12 51.23 46.80 42.94 40.79 40.68 41.34 42.11 45.68 46.32 48.88 48.87 43.59 41.01 38.93 39.26 39.79 41.00 42.64 40.48 41.28 40.46 43.35 39.24 36.94 33.06 33.05
50.89 49.80 49.37 48.79 49.52 49.53 46.75 45.37 45.88 45.96 46.06 45.20 45.17 44.72 44.60 45.08 44.76 50.77 49.40 42.27 40.96 40.68 40.80 40.89 41.72 46.55 47.02 46.35 46.17 41.21 41.07 41.00 39.36 36.64 35.67 35.43 35.62 35.35 35.41 36.08 35.19 34.03 32.46
48.49 48.44 48.67 48.54 49.09 47.47 47.59 45.88 45.84 45.50 44.54 43.81 43.57 43.28 43.67 43.70 48.30 50.24 50.90 47.13 45.25 41.50 41.02 41.10 41.02 44.45 44.40 45.16 44.81 46.16 44.14 39.55 35.35 33.89 32.30 31.28 31.49 31.70 32.73 33.46 34.07 34.68 36.04
46.58 46.92 46.65 46.67 47.62 47.31 47.00 46.03 45.12 44.57 43.91 43.06 42.89 42.14 41.93 43.09 43.40 50.10 50.99 49.70 48.21 42.21 40.92 41.98 42.62 42.76 43.35 41.38 43.35 42.17 39.28 33.82 32.47 30.44 29.38 29.64 30.81 31.48 31.77 32.59 33.53 34.17 34.65
46.21 45.72 45.43 46.15 45.42 45.90 46.96 47.04 46.13 44.74 43.42 43.15 42.35 41.49 41.09 41.39 41.27 42.24 42.89 41.88 43.90 40.63 40.78 38.13 40.12 40.53 40.96 38.99 36.40 35.11 33.43 32.90 31.44 29.91 29.43 29.48 30.67 31.08 31.11 32.49 31.77 32.43 32.19
45.43 45.09 45.25 45.99 46.50 45.29 45.86 45.91 45.91 45.12 45.94 43.59 42.35 41.73 40.37 39.98 40.94 42.60 41.35 38.89 37.72 39.49 39.09 36.21 34.60 34.08 32.73 32.22 31.94 31.67 31.67 31.12 30.26 29.98 29.07 28.82 29.88 30.43 30.80 32.42 30.91 30.72 31.28
44.85 44.92 45.41 45.79 44.74 45.27 44.65 42.86 46.45 46.26 46.86 46.41 46.07 43.37 41.67 44.01 46.15 45.85 45.19 43.81 42.97 42.31 36.17 33.65 32.49 31.75 31.03 30.51 30.13 29.92 29.91 31.40 29.95 30.17 29.49 29.23 29.77 29.80 29.99 30.64 30.54 29.68 29.22
45.10 44.89 45.54 45.57 45.04 43.88 43.37 43.25 41.37 43.14 46.20 46.30 46.65 45.98 44.28 44.61 46.30 45.26 44.02 43.09 42.52 40.54 33.77 32.29 31.45 31.95 31.38 30.41 30.12 29.61 29.23 29.64 30.11 29.73 29.37 29.29 30.12 29.76 30.53 29.93 31.03 30.10 28.78
44.62 46.52 45.62 44.99 44.70 43.16 42.59 41.44 41.57 41.07 39.61 39.15 44.45 44.35 45.88 45.45 45.34 44.31 43.50 41.92 35.35 35.65 32.85 31.50 31.24 31.30 30.41 30.19 29.91 29.43 29.56 29.43 29.61 29.91 29.46 29.54 29.10 29.39 29.57 29.83 29.70 29.67 29.80
44.09 43.61 43.01 42.21 41.54 42.05 40.63 39.87 39.40 38.98 38.46 37.95 38.25 43.09 44.53 45.74 45.24 44.17 43.26 35.80 34.05 33.14 32.80 32.17 31.88 30.98 30.46 30.35 29.99 30.03 29.76 29.38 29.75 29.39 29.67 29.96 31.33 29.57 29.85 29.63 29.50 31.20 30.62
43.01 43.75 42.58 40.93 40.73 39.69 39.38 39.01 38.13 37.79 37.40 37.05 36.89 37.16 38.24 40.32 38.83 37.82 37.47 36.12 34.89 34.49 34.34 33.70 33.23 31.47 30.51 30.27 29.89 29.94 29.54 29.42 28.74 29.26 31.61 31.75 32.57 31.46 30.46 30.43 30.18 29.76 28.92
40.73 41.38 42.83 40.23 40.08 39.73 39.26 38.70 38.08 37.23 36.41 36.12 36.43 38.26 41.01 38.42 37.22 36.36 35.39 34.91 34.54 33.77 33.26 32.53 31.58 30.87 30.34 29.93 29.81 29.66 29.34 29.14 29.44 30.27 31.61 31.74 31.89 31.23 31.63 30.41 31.25 29.89 28.82
41.00 40.54 39.82 39.77 39.00 38.59 37.77 37.49 36.89 36.50 36.28 36.44 36.58 38.47 43.05 38.06 36.45 35.66 35.20 35.26 34.81 34.23 33.71 32.80 31.75 30.93 30.59 30.50 30.48 29.89 29.44 28.99 29.67 30.43 31.44 31.61 30.90 30.78 31.59 30.84 30.62 30.03 29.41
40.13 39.17 38.32 38.05 38.40 39.95 37.84 36.66 36.50 36.40 36.51 37.05 37.48 37.27 37.64 37.89 36.44 35.81 35.78 35.20 34.72 34.30 33.73 32.51 31.53 31.11 30.71 30.50 30.98 30.98 30.01 29.79 30.48 31.10 32.16 31.65 31.27 30.79 30.61 29.73 29.93 29.78 29.26
39.48 38.81 38.03 37.64 37.91 36.70 36.57 36.36 36.55 37.70 37.48 37.41 37.67 37.63 37.19 36.98 36.11 35.76 35.30 34.82 34.20 34.23 33.65 32.57 31.93 31.32 30.64 30.74 31.03 31.44 31.41 31.60 31.72 31.92 33.00 32.03 31.21 30.72 30.24 30.18 30.16 30.48 30.50
38.80 37.99 37.64 37.67 38.13 36.60 37.51 37.51 37.44 37.99 37.68 37.99 38.04 37.53 37.10 36.66 35.98 35.52 34.81 34.38 33.54 33.41 32.84 32.22 31.74 31.52 31.55 31.17 31.03 31.00 32.18 34.18 33.20 34.39 33.41 32.75 31.67 31.21 30.73 30.87 31.07 31.45 30.50
38.77 38.45 37.98 38.41 38.19 37.98 37.91 37.68 37.67 37.77 37.58 37.75 37.28 36.85 36.33 35.38 34.94 34.67 34.58 33.90 33.23 32.28 32.32 32.02 32.33 33.09 32.54 32.37 33.09 33.78 34.60 34.96 34.60 35.42 33.75 32.93 31.74 31.41 31.46 31.24 31.26 31.10 30.86
MSLP
1013.33 1013.75 1014.21 1014.58 1014.96 1015.34 1015.70 1015.87 1015.99 1016.24 1016.50 1016.65 1016.65 1016.75 1016.89 1017.06 1017.31 1017.62 1017.78 1017.95 1018.11 1018.15 1018.21 1018.25 1018.12 1018.02 1017.93 1017.97 1018.05 1017.95 1017.91 1018.10 1017.61 1015.55 1015.63 1015.51 1015.21 1014.87 1014.74 1014.48 1014.21 1013.99 1013.64
1012.27 1012.93 1013.37 1013.80 1014.31 1014.72 1014.92 1015.00 1015.28 1015.62 1015.98 1016.06 1016.20 1016.39 1016.51 1016.64 1016.82 1017.07 1017.27 1017.43 1017.66 1017.75 1017.59 1017.71 1017.53 1017.48 1017.43 1017.35 1017.22 1017.24 1017.32 1017.05 1017.21 1015.96 1015.59 1015.20 1015.02 1014.70 1014.54 1014.48 1013.93 1013.67 1013.34
1011.68 1012.25 1012.83 1013.26 1013.65 1013.80 1013.96 1014.21 1014.67 1015.08 1015.31 1015.50 1015.73 1015.90 1015.99 1016.07 1016.28 1016.42 1016.66 1016.82 1017.02 1017.00 1016.98 1017.21 1017.05 1017.07 1016.94 1016.60 1016.73 1016.85 1016.58 1016.26 1016.16 1016.07 1015.46 1014.96 1014.55 1014.34 1014.23 1013.78 1013.47 1013.15 1012.75
1011.07 1011.56 1011.97 1012.25 1012.49 1012.71 1013.00 1013.52 1013.95 1014.27 1014.66 1014.95 1015.15 1015.38 1015.53 1015.57 1015.69 1015.78 1015.97 1016.22 1016.39 1016.46 1016.61 1016.59 1016.53 1016.51 1016.33 1016.21 1016.15 1016.15 1015.99 1015.89 1015.77 1015.58 1015.13 1014.79 1014.54 1013.93 1014.08 1013.94 1013.44 1012.81 1012.30
1010.39 1010.86 1010.87 1011.15 1011.56 1011.99 1012.50 1012.86 1013.22 1013.67 1014.00 1014.35 1014.68 1014.94 1015.15 1015.23 1015.16 1015.26 1015.52 1015.78 1016.01 1016.12 1016.07 1016.20 1016.07 1015.84 1015.77 1015.48 1015.38 1015.33 1015.32 1015.20 1015.11 1015.05 1014.75 1014.54 1014.27 1014.08 1013.91 1013.76 1013.51 1012.73 1012.02
1009.26 1009.58 1010.03 1010.53 1010.97 1011.33 1011.75 1012.24 1012.75 1013.14 1013.57 1013.94 1014.24 1014.53 1014.78 1014.76 1014.67 1014.72 1014.94 1015.29 1015.60 1015.72 1015.91 1015.77 1015.70 1015.55 1015.15 1014.90 1014.67 1014.48 1014.48 1014.31 1014.61 1014.88 1014.53 1014.30 1013.92 1013.87 1013.29 1013.00 1012.78 1012.80 1011.95
1008.22 1008.53 1009.13 1009.67 1010.11 1010.44 1010.93 1011.67 1012.22 1012.71 1013.12 1013.49 1013.81 1014.15 1014.32 1014.35 1014.31 1014.35 1014.50 1014.79 1015.18 1015.46 1015.59 1015.52 1015.46 1015.11 1014.87 1014.70 1014.34 1014.05 1013.84 1013.81 1013.69 1013.72 1013.81 1013.59 1013.39 1013.01 1012.95 1012.69 1012.46 1012.05 1011.68
1007.33 1007.57 1008.03 1008.74 1009.31 1009.81 1010.38 1010.92 1011.50 1012.04 1012.63 1013.05 1013.34 1013.60 1013.88 1013.91 1013.97 1014.04 1014.16 1014.42 1014.91 1015.05 1015.22 1015.27 1015.19 1014.97 1014.69 1014.30 1014.28 1014.37 1014.26 1014.06 1013.73 1013.32 1013.13 1012.72 1012.36 1011.93 1011.87 1011.68 1011.59 1011.50 1010.86
1005.92 1006.30 1006.70 1007.47 1008.37 1009.11 1009.74 1010.16 1010.84 1011.49 1012.09 1012.49 1012.69 1013.08 1013.47 1013.53 1013.67 1013.78 1013.82 1014.23 1014.65 1014.87 1014.90 1014.85 1014.80 1014.69 1014.37 1014.33 1014.46 1014.23 1014.00 1013.84 1013.31 1012.91 1012.51 1012.21 1011.80 1011.76 1011.51 1011.48 1011.80 1011.79 1011.35
1004.56 1004.62 1005.47 1006.20 1007.07 1007.98 1008.73 1009.55 1010.21 1010.80 1011.32 1011.87 1012.34 1012.49 1012.78 1013.18 1013.32 1013.43 1013.36 1013.96 1014.57 1014.60 1014.56 1014.55 1014.50 1014.53 1014.49 1014.09 1013.79 1014.07 1013.99 1013.40 1012.95 1012.81 1012.83 1012.49 1012.55 1012.17 1011.90 1012.14 1012.38 1012.15 1011.81
1002.96 1003.74 1004.39 1004.92 1005.70 1006.50 1007.70 1008.74 1009.47 1010.39 1011.03 1011.50 1011.87 1012.18 1012.51 1012.69 1012.99 1012.95 1012.99 1013.59 1014.03 1014.25 1014.37 1014.42 1014.45 1014.26 1013.81 1013.68 1013.57 1013.45 1013.27 1013.22 1013.37 1013.36 1013.42 1013.19 1013.15 1013.06 1012.63 1012.21 1012.15 1012.27 1011.64
1002.45 1002.91 1003.51 1004.05 1004.82 1005.74 1006.69 1007.70 1008.74 1009.73 1010.53 1011.14 1011.62 1012.02 1012.21 1012.33 1012.47 1012.41 1012.60 1013.07 1013.53 1013.85 1014.07 1014.09 1013.94 1013.75 1013.69 1013.44 1013.20 1013.28 1013.39 1013.56 1013.83 1013.87 1013.55 1013.32 1013.02 1012.83 1012.45 1011.94 1011.71 1011.73 1011.40
1002.06 1002.47 1002.97 1003.59 1004.29 1005.03 1006.03 1007.09 1008.29 1009.15 1009.99 1010.74 1011.20 1011.69 1011.82 1011.99 1012.05 1011.96 1012.28 1012.85 1013.18 1013.39 1013.51 1013.70 1013.75 1013.64 1013.41 1013.44 1013.33 1013.36 1013.65 1013.70 1013.79 1013.96 1013.86 1013.28 1012.88 1012.53 1012.33 1011.98 1011.34 1011.09 1010.94
1001.89 1002.25 1002.67 1003.25 1003.99 1004.70 1005.54 1006.35 1007.27 1008.38 1009.29 1009.95 1010.61 1011.09 1011.32 1011.69 1011.90 1011.95 1012.37 1012.68 1012.83 1013.21 1013.48 1013.62 1013.62 1013.62 1013.63 1013.61 1013.72 1013.58 1013.22 1013.44 1013.71 1013.67 1013.46 1013.08 1012.79 1012.59 1012.62 1012.16 1011.74 1011.27 1010.94
1001.59 1001.98 1002.45 1002.91 1003.54 1004.37 1005.02 1005.63 1006.39 1007.09 1007.63 1008.69 1009.33 1009.90 1010.78 1011.33 1011.34 1011.51 1011.97 1012.57 1012.91 1013.03 1013.31 1013.54 1013.68 1013.72 1013.73 1013.66 1013.45 1013.48 1013.56 1013.48 1013.80 1013.74 1013.44 1013.26 1012.66 1012.31 1012.24 1011.88 1011.76 1011.26 1010.76
1001.78 1002.10 1002.37 1002.81 1003.45 1004.02 1004.85 1005.91 1006.37 1006.67 1007.33 1007.87 1008.43 1009.17 1010.10 1010.21 1010.54 1011.18 1011.81 1012.19 1012.44 1012.62 1012.88 1013.38 1013.74 1013.86 1013.94 1013.99 1013.86 1013.90 1013.95 1013.92 1013.79 1013.59 1013.33 1012.81 1012.42 1012.25 1012.11 1011.46 1011.51 1011.29 1010.77
1001.41 1001.80 1002.15 1002.54 1003.11 1003.84 1004.67 1005.43 1006.50 1007.35 1007.63 1008.03 1008.50 1009.06 1009.51 1010.05 1010.55 1010.98 1011.43 1011.72 1011.92 1012.29 1012.88 1013.28 1013.54 1013.62 1013.58 1013.73 1013.69 1013.79 1013.37 1013.34 1013.31 1013.05 1012.95 1012.48 1012.37 1012.19 1011.85 1011.57 1011.14 1011.01 1010.62
1000.96 1001.26 1001.71 1002.14 1002.65 1003.51 1004.33 1005.23 1006.04 1006.95 1007.80 1008.53 1008.79 1009.15 1009.46 1009.79 1010.29 1010.80 1011.27 1011.75 1012.20 1012.41 1012.64 1012.82 1012.98 1013.27 1013.09 1013.21 1013.26 1013.63 1013.61 1013.29 1013.20 1012.91 1012.38 1011.98 1011.60 1011.57 1011.72 1011.31 1010.99 1010.61 1010.10
1000.78 1001.22 1001.57 1002.07 1002.69 1003.40 1004.26 1005.19 1006.00 1006.83 1007.59 1008.22 1008.76 1008.86 1008.98 1009.45 1009.99 1010.51 1010.89 1011.33 1011.82 1012.24 1012.43 1012.71 1012.55 1012.60 1012.73 1012.80 1012.81 1012.91 1013.08 1012.92 1012.51 1012.44 1012.03 1011.49 1011.47 1011.21 1011.07 1010.95 1010.81 1010.30 1009.76
1000.37 1000.78 1001.39 1002.15 1003.00 1003.76 1004.49 1005.30 1006.08 1006.73 1007.35 1007.74 1008.10 1008.50 1009.13 1009.61 1009.92 1010.20 1010.51 1010.71 1011.09 1011.32 1011.75 1012.02 1011.83 1011.88 1012.02 1012.21 1012.26 1012.38 1012.38 1012.37 1012.26 1011.87 1011.55 1011.17 1010.85 1010.83 1010.44 1010.09 1010.21 1010.05 1009.52
1000.28 1000.88 1001.22 1002.01 1002.71 1003.37 1004.08 1004.84 1005.56 1006.31 1007.07 1007.63 1007.90 1008.08 1008.42 1008.86 1009.40 1009.88 1010.27 1010.64 1010.70 1010.66 1010.85 1011.18 1010.92 1010.74 1011.07 1011.38 1011.64 1011.90 1011.70 1011.42 1011.51 1011.26 1010.96 1010.58 1010.49 1010.42 1010.01 1009.80 1009.35 1009.31 1009.09
999.98 1000.65 1001.31 1001.91 1002.71 1003.52 1004.18 1004.80 1005.51 1006.11 1006.61 1007.06 1007.47 1007.75 1008.06 1008.61 1009.15 1009.64 1009.85 1010.21 1010.11 1010.27 1010.22 1010.55 1010.64 1010.73 1010.60 1010.80 1010.91 1011.18 1011.22 1010.99 1010.72 1010.20 1009.97 1010.21 1010.19 1009.94 1009.58 1009.19 1008.83 1008.59 1008.46
999.53 1000.35 1001.18 1002.00 1002.71 1003.49 1004.27 1004.82 1005.40 1005.94 1006.45 1006.90 1007.36 1007.74 1008.05 1008.37 1009.02 1009.34 1009.67 1009.71 1009.51 1009.81 1009.90 1010.08 1010.06 1009.82 1009.90 1010.04 1010.32 1010.57 1010.66 1010.43 1010.24 1010.07 1009.98 1009.77 1009.73 1009.60 1009.28 1008.90 1008.43 1007.82 1007.58
999.34 1000.10 1000.95 1001.91 1002.74 1003.68 1004.42 1005.06 1005.48 1005.88 1006.38 1006.71 1007.03 1007.37 1007.79 1008.40 1008.63 1008.86 1009.07 1008.96 1009.13 1009.29 1009.46 1009.60 1009.65 1009.58 1009.43 1009.49 1009.48 1009.57 1009.36 1009.25 1009.17 1009.38 1008.99 1008.86 1009.05 1008.91 1008.82 1008.35 1008.00 1007.36 1006.87
999.47 1000.39 1001.17 1002.07 1002.77 1003.62 1004.50 1004.92 1005.32 1005.52 1005.95 1006.54 1007.13 1007.29 1007.58 1007.94 1008.22 1008.42 1008.43 1008.78 1008.91 1008.94 1008.60 1008.69 1008.93 1009.05 1008.95 1008.85 1008.68 1008.68 1008.57 1008.44 1008.26 1008.24 1008.23 1008.22 1008.08 1007.91 1007.94 1007.59 1007.22 1006.67 1006.22
999.40 1000.24 1001.24 1002.11 1002.91 1003.74 1004.24 1004.86 1005.23 1005.53 1006.04 1006.39 1006.82 1007.51 1007.60 1007.77 1007.85 1008.04 1008.10 1008.32 1008.62 1008.26 1008.07 1008.22 1008.30 1008.16 1008.22 1008.00 1007.85 1007.65 1007.64 1007.48 1007.58 1007.31 1007.17 1007.47 1007.51 1007.28 1006.96 1006.68 1006.31 1005.95 1005.44
Wind_Speed
11 11 9 9 9 7 7 7 8 6 6 6 6 6 6 6 5 4 5 5 6 6 5 6 8 6 6 4 4 5 7 5 9 11 5 4 4 6 6 6 7 7 7
11 10 11 8 7 8 9 8 7 7 6 7 6 6 6 6 5 6 6 5 6 6 7 6 8 5 7 6 5 7 6 6 6 15 8 6 6 4 6 6 7 6 6
9 10 8 9 9 11 10 8 7 7 7 6 6 7 7 7 6 6 6 6 6 7 6 6 7 6 7 5 5 5 5 6 5 6 8 4 4 2 4 5 6 6 6
9 10 11 12 13 12 10 8 8 7 7 7 6 6 6 6 6 5 5 5 6 5 5 6 6 6 7 7 6 6 6 5 4 5 6 6 3 3 2 4 6 2 5
11 11 14 12 10 8 8 8 7 7 7 7 6 5 5 5 4 5 5 5 5 5 5 5 6 8 13 11 5 5 5 4 4 5 6 3 4 3 3 2 4 5 5
13 15 12 9 10 11 9 9 8 7 7 6 6 6 6 4 7 8 6 5 4 4 5 5 5 9 9 13 14 15 8 4 4 2 4 4 6 3 3 4 3 4 5
14 13 12 11 12 12 10 8 9 8 6 7 7 6 7 6 8 7 6 4 3 3 4 5 5 4 8 6 11 11 8 10 9 3 5 4 4 4 3 2 6 5 7
14 14 12 12 13 10 10 12 8 6 8 6 7 7 5 5 8 6 5 5 2 3 4 5 5 6 6 7 5 6 6 6 6 5 5 6 6 6 6 6 8 7 4
16 16 15 14 13 10 13 13 7 7 6 6 5 7 7 6 8 7 7 4 2 3 3 3 4 4 4 8 4 5 6 6 8 11 11 10 12 14 11 4 4 7 8
17 18 14 14 14 14 14 10 6 5 5 5 6 6 7 6 7 9 8 4 3 3 2 3 5 3 9 9 4 4 5 6 5 6 6 7 8 7 12 5 4 5 5
17 11 13 14 16 15 10 7 7 6 6 6 6 5 6 6 6 11 12 5 4 2 2 2 2 7 9 12 12 4 6 3 4 4 4 4 5 5 4 4 4 3 6
9 12 13 14 12 10 14 8 8 8 7 6 6 4 4 5 9 11 13 10 8 4 3 2 3 9 11 10 7 6 5 5 4 3 3 3 3 4 5 5 6 6 6
8 11 11 10 11 11 12 11 7 7 6 6 5 4 4 4 4 10 12 10 8 4 3 3 5 8 8 3 4 5 6 3 2 2 3 3 3 4 5 5 5 6 7
9 8 7 10 9 8 7 9 9 8 6 6 5 5 5 4 4 3 4 4 5 3 1 1 4 5 2 1 2 2 1 1 2 2 3 3 3 3 4 5 4 6 7
7 6 7 7 10 9 7 9 8 6 8 8 6 6 6 5 5 9 8 4 4 4 2 1 1 1 2 2 2 1 1 1 2 3 2 3 3 2 3 4 3 6 8
6 5 6 7 6 8 8 5 4 5 11 9 10 7 3 6 12 13 11 9 8 5 2 2 2 2 3 3 3 2 2 3 3 3 3 3 3 3 5 3 4 5 8
7 7 6 7 8 9 7 8 7 5 6 9 11 10 11 10 12 11 11 9 8 4 2 2 3 4 3 3 3 4 3 3 4 4 3 4 4 3 7 5 6 6 9
7 10 8 7 8 7 7 6 6 7 6 3 5 6 10 12 13 11 10 6 1 2 3 3 3 4 4 4 3 3 3 3 3 4 4 4 4 2 5 7 6 7 7
7 5 5 5 5 6 6 5 5 5 5 4 3 5 8 12 11 11 11 4 4 3 4 4 4 4 4 4 4 4 4 4 4 4 4 3 4 2 6 8 8 12 14
6 9 8 6 6 5 5 6 5 5 5 5 4 4 4 5 4 4 4 4 4 4 4 4 4 4 4 4 4 5 4 4 4 4 4 4 4 3 5 6 7 6 7
5 6 12 7 7 7 7 7 6 5 5 4 4 5 11 5 4 4 4 4 5 4 4 5 5 5 4 4 4 4 5 4 5 4 4 4 5 6 6 6 6 7 7
7 7 6 7 5 5 5 5 5 5 5 5 3 3 10 3 4 3 3 4 4 4 4 4 4 4 4 5 5 5 5 5 5 4 5 5 5 6 6 6 7 6 7
8 8 7 5 5 8 5 5 5 5 5 4 4 3 2 3 3 4 4 5 3 4 4 4 4 4 4 4 5 5 5 6 6 5 5 5 6 6 7 8 8 7 8
9 9 9 7 6 5 5 5 4 5 5 4 4 4 4 2 3 4 5 3 3 4 4 4 4 6 5 5 5 6 6 6 4 5 8 6 6 7 8 9 8 10 8
8 7 7 7 6 6 6 5 5 5 5 4 3 3 3 3 3 3 2 2 3 4 4 4 4 6 8 9 8 9 9 12 8 9 5 7 8 9 9 9 10 9 10
9 9 8 7 6 6 5 5 4 4 4 4 3 2 2 2 1 1 1 2 3 3 4 4 5 8 9 8 9 12 14 14 11 14 6 6 7 8 8 10 12 9 11
Wind_Direction
196 200 202 206 206 202 211 221 223 228 230 240 246 254 253 253 238 231 243 248 242 257 249 241 255 238 249 235 219 225 237 211 254 280 270 269 260 247 269 265 269 269 270
200 197 209 203 194 205 217 221 209 224 222 231 233 238 243 243 236 227 247 242 245 261 260 250 260 261 254 246 228 238 242 237 243 278 289 281 257 266 254 273 276 277 265
189 196 203 204 199 212 216 212 203 212 227 229 224 230 236 235 230 226 225 242 244 247 255 255 266 267 270 260 245 248 241 254 235 260 284 284 264 252 277 261 261 270 272
194 197 206 207 207 209 208 198 199 202 213 215 219 229 234 238 231 234 227 243 254 255 264 258 268 261 262 277 275 252 254 253 250 252 268 275 259 280 249 270 293 257 276
197 202 215 211 204 199 194 196 197 196 203 207 207 223 236 225 223 221 216 232 252 279 277 277 265 268 279 278 270 261 245 247 246 254 268 261 272 281 267 278 267 281 284
196 211 212 200 196 200 197 193 188 197 201 196 204 211 229 236 230 226 203 217 233 254 290 293 289 295 294 299 300 298 288 245 264 244 276 244 268 252 245 250 253 295 294
206 209 206 201 203 201 193 181 192 194 183 202 201 198 220 232 236 229 228 170 192 242 278 293 305 288 306 297 300 306 313 322 320 283 266 260 268 245 254 275 273 254 269
209 209 204 199 207 197 186 195 187 173 191 191 200 203 201 228 230 231 182 143 159 255 263 277 283 298 304 291 295 312 316 316 313 306 269 267 256 269 256 273 284 278 271
208 211 204 195 200 190 198 197 180 167 178 185 184 190 195 224 234 220 148 140 210 266 272 286 283 289 336 6 360 310 307 307 303 301 301 322 338 341 350 3 354 337 319
211 213 198 192 194 195 201 185 160 166 179 172 189 193 200 214 229 203 150 149 208 234 276 290 316 276 338 331 300 285 290 275 293 314 343 350 354 353 9 35 352 329 314
217 198 193 190 193 193 172 157 156 163 162 180 187 188 202 207 223 197 168 170 196 192 234 285 319 329 317 314 307 255 244 301 2 13 347 348 355 351 336 332 316 288 300
199 195 197 193 189 173 174 160 156 158 169 180 178 203 213 222 218 202 183 189 182 178 229 226 265 310 323 315 307 291 60 47 27 7 353 324 315 311 304 304 300 296 282
181 191 188 180 181 173 169 162 146 159 165 176 181 191 204 206 220 193 187 188 177 170 175 232 320 323 309 343 69 78 55 39 7 349 308 277 272 283 297 306 302 296 290
194 192 176 173 163 161 160 163 160 166 171 177 178 191 197 192 189 161 138 157 168 130 155 334 320 322 32 34 41 14 66 154 202 247 262 277 300 334 317 309 309 327 311
189 174 172 168 171 161 164 166 169 182 174 175 190 175 170 198 207 179 177 178 172 193 142 95 6 332 309 301 277 302 276 24 302 277 284 300 302 305 301 311 309 318 307
179 172 173 162 162 159 154 129 69 151 172 169 159 151 186 167 164 168 174 173 175 174 136 186 236 236 246 254 255 278 266 292 284 277 285 286 299 309 307 311 318 317 320
186 174 172 164 166 161 159 157 148 54 122 149 155 160 162 163 163 171 180 185 187 167 162 212 227 234 246 244 236 225 224 249 263 273 286 295 293 292 316 308 316 318 315
192 184 177 174 165 155 157 152 146 158 159 164 200 166 172 167 174 183 186 167 136 216 196 209 225 236 231 229 223 233 257 275 273 284 278 275 269 265 297 305 299 305 305
175 174 162 142 135 138 129 130 139 148 158 152 140 181 185 183 181 187 185 168 193 221 223 233 232 236 233 223 221 227 236 247 253 273 268 272 279 283 312 307 299 308 319
171 152 144 141 135 133 139 148 151 156 164 175 174 177 142 136 177 189 193 194 206 215 224 232 233 227 224 218 214 223 234 244 256 263 271 289 283 255 275 289 295 294 300
147 146 149 139 153 159 160 165 164 158 157 167 181 183 182 169 187 188 195 208 217 217 222 230 226 216 215 215 220 230 230 234 246 251 279 281 284 276 282 287 279 280 286
155 155 152 155 137 142 151 145 149 157 163 164 170 181 185 168 176 206 215 230 229 233 224 228 236 232 218 214 218 226 233 239 245 237 248 264 285 285 277 279 282 276 280
151 148 142 137 140 145 139 144 149 151 155 157 154 156 158 163 187 201 225 239 239 243 244 230 237 239 231 221 220 223 230 234 236 241 262 268 271 284 292 289 285 283 284
147 149 147 140 134 131 140 148 148 144 142 149 153 161 168 195 207 225 237 244 250 250 243 241 243 245 248 240 228 229 227 231 225 238 245 252 266 280 281 282 278 279 282
127 125 125 134 135 138 139 139 144 140 136 137 168 160 187 197 212 238 255 260 264 263 261 257 254 255 253 252 245 241 241 242 241 242 239 242 255 268 272 276 279 277 283
127 126 126 127 125 132 130 133 125 115 129 121 116 144 158 148 136 236 255 275 273 275 284 270 262 257 258 257 256 250 249 246 246 247 248 244 263 269 273 276 279 277 281